Probability
2 3 3 1 0 0 0 1 0 0 0 0 0 0 0 0 0 0 0 0 0 0 0 0 0 0 0 0 0 0 0 0 0 0 0 0 0 0 0 0 0 0 0
3 3 3 2 1 1 1 2 1 0 0 0 0 0 0 0 0 0 0 0 0 0 0 0 0 0 0 0 0 0 0 0 0 0 0 0 0 0 0 0 0 0 0
5 4 3 3 3 3 4 4 2 0 0 0 0 0 0 0 0 0 0 0 0 0 0 0 0 0 0 0 0 0 0 0 0 0 0 0 0 0 0 0 0 0 0
5 4 4 4 4 4 7 7 4 1 0 0 0 0 0 0 0 0 0 0 0 0 0 0 0 0 0 0 0 0 0 0 0 0 0 0 0 0 0 0 0 0 0
6 5 6 7 6 5 7 8 5 1 0 0 0 0 0 0 0 0 0 0 0 0 0 0 0 0 0 0 0 0 0 0 0 0 0 0 0 0 0 0 0 0 0
7 6 7 8 7 6 6 6 5 2 1 0 0 0 0 0 0 0 0 0 0 0 0 0 0 0 0 0 0 0 0 0 0 0 0 0 0 0 0 0 0 0 0
6 6 7 7 6 5 5 5 5 5 2 1 0 0 0 0 0 0 0 0 0 0 0 0 0 0 0 0 0 0 0 0 0 0 0 0 0 0 0 0 0 0 0
7 8 8 6 4 4 4 4 6 6 3 1 0 0 0 0 0 0 0 0 0 0 0 0 0 0 0 0 0 0 0 0 0 0 0 0 0 0 0 0 0 0 0
10 10 8 5 3 3 3 4 5 5 3 1 1 0 0 0 0 0 0 0 0 0 0 0 0 0 0 0 0 0 0 0 0 0 0 0 0 0 0 0 0 0 0
12 11 8 6 4 4 3 3 4 4 3 2 2 1 0 0 0 0 0 0 0 0 0 0 0 0 0 0 0 0 0 0 0 0 0 0 0 0 0 0 0 0 0
14 13 11 9 7 5 4 3 3 2 1 2 2 1 1 0 0 0 0 0 0 0 0 0 0 0 0 0 0 0 0 0 0 0 0 0 0 0 0 0 0 0 0
22 18 14 12 10 10 8 7 6 4 2 1 1 1 1 1 1 1 1 1 0 0 0 0 0 0 0 0 0 0 0 0 0 0 0 0 0 0 0 0 0 0 0
30 24 17 14 16 17 17 13 10 7 3 2 3 3 4 4 5 5 4 2 1 0 0 0 0 0 1 1 0 0 0 0 0 0 0 0 0 0 0 0 0 0 0
34 28 21 20 23 24 21 16 10 6 3 3 5 6 7 8 9 8 6 4 1 0 0 0 0 0 1 1 0 0 0 0 0 0 0 1 1 1 1 1 0 0 0
33 30 26 25 26 26 21 14 7 4 4 4 5 6 8 9 8 6 5 4 1 0 0 0 0 0 1 1 0 0 0 0 1 0 1 2 2 1 1 1 0 0 0
28 27 27 25 25 24 21 15 8 5 4 3 3 5 7 7 4 3 3 2 1 0 0 1 0 0 0 0 0 0 0 0 0 0 1 2 2 1 0 0 1 1 1
21 22 22 23 22 22 21 17 11 6 3 1 1 3 6 5 3 2 2 1 0 0 0 0 0 0 0 0 0 0 0 0 0 0 0 1 1 1 0 0 1 3 2
17 18 20 20 21 21 19 15 10 5 1 0 1 3 4 4 3 2 2 1 1 1 0 0 0 0 0 0 0 0 0 0 0 0 0 1 2 2 2 2 3 4 3
17 18 19 20 20 20 17 14 9 5 2 1 1 2 3 2 1 1 2 2 2 2 1 0 0 0 0 0 0 0 0 0 0 0 0 1 2 2 3 4 5 4 3
16 16 17 18 20 20 18 14 10 6 3 3 2 1 1 1 0 0 1 3 3 3 2 1 0 0 0 0 0 0 0 0 0 0 0 0 1 1 2 3 4 3 2
13 13 15 16 18 20 19 15 12 8 5 3 2 1 0 0 0 0 1 2 3 3 3 1 1 1 0 0 0 0 0 0 0 0 0 0 0 0 0 1 2 2 2
8 10 13 15 17 17 16 15 12 10 6 2 1 0 0 0 0 0 1 2 3 3 3 3 2 1 0 0 0 0 0 0 0 0 0 0 0 0 0 0 0 1 1
6 8 10 13 14 13 13 12 11 9 5 1 0 0 0 0 0 0 0 1 2 2 2 2 2 1 0 0 0 0 0 0 0 0 0 0 0 0 0 0 0 0 0
6 7 9 10 10 9 9 7 6 6 4 2 1 0 0 0 0 0 0 0 1 1 1 1 1 0 0 0 0 0 0 0 0 0 0 0 0 0 0 0 0 0 0
5 6 7 7 6 6 5 4 3 4 4 3 1 0 0 0 0 0 0 0 0 0 0 0 0 0 0 0 0 0 0 0 0 0 0 0 0 0 0 0 0 0 0
4 4 5 5 4 4 4 3 3 4 4 3 1 0 0 0 0 0 0 0 0 0 0 0 0 0 0 0 0 0 0 0 0 0 0 0 0 0 0 0 0 0 0
Wind_Speed
13 16 17 15 15 15 15 15 14 14 14 14 14 13 12 12 11 10 9 9 9 9 9 9 10 10 9 10 10 10 10 10 10 11 12 12 11 11 11 11 11 13 14
16 18 18 15 15 15 15 15 14 14 14 14 13 13 12 11 10 10 9 9 9 9 9 9 10 10 10 10 10 10 10 10 10 11 12 12 12 11 9 8 8 12 13
18 19 18 15 15 15 15 15 14 14 14 14 13 12 12 11 10 9 9 9 9 9 9 9 10 10 10 10 9 9 9 9 9 8 8 10 12 10 10 11 14 13 13
18 18 17 17 15 15 15 15 14 14 14 13 13 12 11 10 10 9 9 9 9 9 9 9 10 9 9 9 9 9 9 9 7 6 5 8 10 11 10 11 12 12 12
17 17 18 18 16 15 15 14 14 14 13 13 12 11 11 10 10 9 9 9 9 9 9 9 9 9 9 8 8 8 8 7 4 5 7 7 9 11 10 11 11 11 12
18 17 19 17 16 15 15 14 14 13 13 12 12 11 10 10 9 9 9 8 8 8 8 9 9 8 8 7 7 6 6 4 7 5 6 7 9 10 10 10 10 11 11
18 17 19 17 16 15 15 14 14 13 12 12 11 10 9 9 9 9 8 8 8 8 8 8 8 7 7 6 6 5 4 2 2 6 5 6 9 9 9 9 10 10 10
17 17 18 17 16 15 14 14 13 13 12 11 11 10 9 9 8 8 8 7 7 7 7 7 6 6 6 6 5 5 3 4 2 5 5 7 10 8 8 9 9 9 10
16 15 16 16 15 15 14 13 13 12 11 11 10 9 8 8 7 7 7 6 6 6 6 5 5 5 5 4 4 3 2 4 3 3 4 6 10 7 8 8 9 9 9
13 14 14 14 13 13 13 13 12 12 11 10 10 9 8 8 7 7 7 6 6 5 4 4 4 4 4 3 3 2 1 6 2 3 3 8 9 7 8 8 9 9 9
13 12 13 13 12 12 12 12 12 11 10 10 9 9 8 6 7 7 6 7 5 4 4 3 3 3 3 4 3 2 6 4 2 1 2 10 8 7 8 8 9 9 9
14 13 11 12 12 11 9 9 8 8 8 7 6 7 5 3 2 3 8 5 4 4 4 3 2 5 6 4 6 7 4 3 2 2 5 9 7 7 8 9 9 9 9
12 12 11 10 9 9 7 7 5 4 5 5 6 5 3 3 3 3 3 4 3 4 3 4 4 2 2 1 2 2 2 3 2 1 5 8 6 7 9 9 10 10 10
12 12 11 11 8 7 7 6 5 5 5 4 5 5 4 2 2 2 1 2 1 1 1 0 0 0 1 1 2 3 3 3 3 2 3 6 5 7 9 10 11 11 11
12 12 11 10 9 7 6 5 5 5 5 5 4 4 3 3 2 2 1 1 1 1 1 1 1 0 1 2 3 3 3 3 4 4 1 6 5 6 8 10 11 12 13
12 12 11 10 9 8 6 5 4 4 4 4 4 5 4 2 2 2 2 1 1 1 1 0 0 1 1 1 2 2 4 4 3 4 5 4 8 6 7 8 10 12 12
10 11 10 10 9 9 7 6 5 5 5 4 4 5 4 3 3 2 2 2 2 2 2 1 1 1 1 2 2 3 3 3 3 4 5 4 4 8 8 7 9 10 11
10 10 10 9 10 8 6 5 4 4 5 4 4 4 4 4 3 2 2 2 2 1 1 1 0 1 1 2 2 2 2 2 4 4 5 4 4 4 7 7 6 8 10
9 9 9 9 9 8 7 6 5 5 4 5 5 5 5 5 4 3 2 3 2 1 1 0 2 2 2 2 3 2 3 3 3 3 4 4 4 4 4 6 7 7 9
9 9 8 8 8 8 7 6 5 6 5 4 4 4 5 5 5 3 4 3 2 1 1 2 1 1 2 3 4 2 3 2 2 2 4 3 3 4 4 4 4 6 9
9 9 9 9 9 7 6 6 6 6 5 5 5 6 5 5 5 2 3 3 1 2 1 0 1 1 1 3 4 3 2 2 1 1 1 2 1 2 2 2 3 2 4
9 9 9 9 9 8 6 5 4 5 5 5 4 5 5 5 4 4 2 3 2 2 1 0 1 3 2 2 4 5 3 3 4 1 1 0 1 1 1 1 1 2 3
10 10 9 9 9 8 8 6 6 5 5 5 5 5 4 4 4 2 3 1 1 2 1 0 1 2 3 2 2 4 4 3 2 2 1 0 1 2 2 2 2 2 3
11 10 10 10 9 9 8 7 8 6 5 5 5 5 5 4 4 3 3 2 2 1 1 2 1 2 3 3 0 1 3 5 5 2 2 2 1 2 3 3 3 2 2
13 12 11 10 9 9 8 7 7 6 5 5 5 6 5 5 4 3 3 3 2 1 1 1 1 3 3 3 3 2 2 2 5 6 5 4 3 3 2 3 3 3 2
13 12 11 11 10 9 8 8 7 6 6 6 6 6 5 4 4 4 4 3 2 1 1 1 1 1 2 3 4 3 3 4 4 4 5 5 5 3 3 4 4 3 3
Wind_Direction
153 144 143 149 146 144 143 141 139 139 139 138 136 133 130 127 124 121 116 110 104 98 93 91 91 92 94 95 96 99 100 100 104 107 108 108 108 110 115 123 130 109 110
149 143 146 149 146 143 141 140 138 137 138 137 135 133 130 127 125 120 115 110 105 99 95 93 94 93 93 94 95 97 100 102 105 111 119 116 111 111 112 106 88 105 116
147 144 151 149 146 143 140 139 138 138 137 136 135 132 130 128 126 119 113 110 106 101 97 96 95 94 93 94 94 96 99 102 108 125 153 129 115 112 107 99 101 115 117
148 148 153 147 146 143 140 138 139 139 137 135 134 133 132 130 126 118 113 109 106 103 101 99 97 96 95 94 94 95 99 102 117 178 149 114 118 114 115 113 115 118 119
149 149 143 150 148 146 142 140 140 140 138 137 135 135 135 131 124 118 113 110 106 104 103 101 98 98 96 94 93 95 100 110 161 213 97 106 107 119 122 122 121 122 122
151 150 143 154 151 149 147 145 144 143 141 140 138 137 135 131 125 121 116 113 110 108 106 104 101 100 100 97 94 98 106 137 217 112 110 115 113 127 131 128 126 127 126
154 149 147 155 153 151 150 149 147 145 143 143 142 140 136 133 129 124 120 117 114 111 110 107 105 102 100 98 92 92 111 227 258 101 115 108 107 128 135 134 131 131 130
154 150 145 154 154 154 154 152 150 148 147 145 143 142 137 133 130 127 124 123 120 119 116 112 110 106 102 94 87 86 98 266 161 115 119 111 112 138 143 142 141 139 137
154 149 151 157 158 158 157 155 153 152 151 150 147 144 141 136 134 132 129 127 125 124 123 124 122 114 108 99 87 87 90 307 282 118 127 113 130 152 156 155 152 150 148
156 155 157 159 159 162 160 158 156 155 154 152 151 149 147 146 147 144 156 137 134 132 132 134 134 129 123 112 99 104 182 250 220 143 130 117 143 167 169 170 167 162 160
161 160 163 159 163 168 162 154 160 158 155 159 159 155 171 177 161 168 127 132 147 145 143 145 146 146 169 159 151 194 229 242 185 146 113 114 157 182 183 183 179 176 173
166 166 167 161 166 168 161 153 166 165 157 172 156 163 175 151 160 144 117 143 148 148 156 150 161 193 226 191 168 204 233 235 249 186 122 132 173 198 198 193 190 188 186
168 167 163 162 169 165 155 160 162 152 154 164 154 160 156 162 169 155 144 151 162 176 182 159 200 223 245 341 297 252 298 288 266 250 124 143 187 207 208 204 199 199 196
169 169 163 159 163 165 161 159 161 161 162 161 153 172 159 168 161 125 134 123 132 123 133 224 260 342 320 292 278 284 268 267 284 289 126 153 204 222 218 213 208 207 205
167 168 161 162 160 163 161 173 163 164 163 153 158 159 169 171 159 136 114 90 106 123 162 202 248 250 268 271 285 289 291 284 285 284 196 164 203 226 227 223 216 213 212
167 162 157 161 161 164 166 168 156 161 157 156 154 147 160 150 137 137 146 134 126 114 67 52 249 239 267 287 279 285 284 290 277 279 278 197 192 210 225 228 225 220 219
165 157 158 162 164 165 165 170 163 162 163 151 140 143 148 144 136 149 136 146 104 111 127 133 128 240 244 252 270 275 269 282 286 274 271 272 224 198 206 222 227 221 221
162 159 165 166 162 163 160 167 156 155 150 144 142 141 144 137 142 161 144 113 107 130 129 130 160 299 320 291 285 288 281 261 266 266 259 253 267 255 200 195 220 224 221
161 158 163 162 160 158 154 152 143 138 142 144 146 143 140 143 147 160 123 104 144 126 113 25 64 326 334 320 287 260 284 281 271 267 281 270 254 260 261 182 199 219 227
158 154 159 157 153 152 149 144 140 139 142 145 140 134 144 145 147 148 136 130 157 128 98 61 49 350 316 312 303 311 282 288 278 281 275 264 257 254 258 266 225 208 213
154 155 160 156 153 157 155 158 154 147 147 144 141 137 149 147 145 162 137 136 176 102 72 8 310 262 298 327 294 278 231 214 234 240 287 302 279 273 269 259 259 270 215
161 164 161 158 157 163 150 148 143 135 145 136 129 134 150 150 158 165 145 169 141 135 139 81 335 315 336 340 315 302 274 197 183 162 229 233 340 305 276 262 263 250 274
164 170 165 157 158 160 154 151 142 141 152 151 153 150 146 151 157 140 163 184 178 233 137 195 294 316 322 318 341 319 310 331 327 171 148 206 328 324 308 318 278 284 266
168 169 164 162 161 162 168 170 172 172 166 154 160 143 148 155 154 156 171 175 203 220 147 234 79 303 296 302 289 303 322 341 307 299 217 189 239 283 313 308 309 288 276
168 167 164 163 162 166 174 173 182 177 158 151 153 141 158 148 159 162 163 165 181 201 107 358 355 301 297 308 318 311 299 260 264 287 296 301 279 278 302 293 294 289 295
169 167 165 165 167 169 176 178 187 169 164 161 166 159 174 161 164 157 159 160 184 150 143 210 272 240 323 339 315 307 300 298 299 297 291 286 293 298 307 305 282 277 276